Location: Musselshell
(46.5176°N, 108.0911°W)
Time: 02:32:58
(UTC+00:00)

SEEDS - Pass Details

Date: 06 July 2022
Orbit: 580 x 597 km, 97.6° (Epoch: 17 August)

Event Time Altitude Azimuth Distance (km) Brightness Sun altitude
Rises 10:26:15 0° 28° (NNE) 2,812 ? -8.7°
Reaches altitude 10° 10:29:02 10° 48° (NE) 1,905 ? -8.4°
Maximum altitude 10:31:50 18° 91° (E) 1,473 ? -8.0°
Drops below altitude 10° 10:34:37 10° 134° (SE) 1,894 ? -7.7°
Sets 10:37:22 0° 154° (SSE) 2,788 ? -7.4°
